Location: Street
(51.1247°N, 2.7429°W)
Time: 05:46:38
(UTC+01:00)

CAS-6 - Pass Details

Date: 28 March 2023
Orbit: 610 x 632 km, 97.9° (Epoch: 29 May)

Event Time Altitude Azimuth Distance (km) Brightness Sun altitude
Exits shadow 00:22:22 16° 309° (NW) 1,616 ? -34.9°
Drops below altitude 10° 00:23:40 10° 322° (NW) 2,001 ? -34.9°
Sets 00:26:13 0° 337° (NNW) 2,917 ? -35.0°
